Regional Weather Roundup
Issued by NWS

Home | Current Version | Previous Version | Graphics & Text | Print | Product List | Glossary On
Versions: 1 2 3 4 5 6 7 8 9 10 11 12 13 14 15 16 17 18 19 20 21 22 23 24 25 26 27 28 29 30 31 32 33 34 35 36 37 38 39 40 41 42 43 44 45 46 47 48 49 50
000
ASUS43 KBIS 130210
RWRND
NORTH DAKOTA REGIONAL WEATHER ROUNDUP
NATIONAL WEATHER SERVICE EASTERN NORTH DAKOTA/GRAND FORKS ND
800 PM CST FRI FEB 12 2016

  NOTE: "FAIR" INDICATES FEW OR NO CLOUDS BELOW 12,000 FEET WITH NO
  SIGNIFICANT WEATHER AND/OR OBSTRUCTIONS TO VISIBILITY.

NDZ001>003-009>011-017-130300-
...NORTHWEST NORTH DAKOTA...

CITY           SKY/WX    TMP DP  RH WIND       PRES   REMARKS
WILLISTON      CLOUDY    13   2  61 SE12      30.42F WCI  -1
MINOT          CLOUDY     2  -8  63 E6        30.53S WCI  -9
MINOT AFB      CLOUDY    -4 -12  70 CALM      30.54R
$$

NDZ018>021-031>035-040>046-130300-
...SOUTHWEST NORTH DAKOTA...

CITY           SKY/WX    TMP DP  RH WIND       PRES   REMARKS
BISMARCK       CLOUDY     6  -2  69 SE7       30.57S WCI  -6
DICKINSON      CLOUDY    10   2  69 SE15      30.37F WCI  -7
GARRISON         N/A      5  -3  69 SE10      30.51S WCI -10
HETTINGER      CLOUDY    11   4  73 SE14      30.39F WCI  -5
$$

NDZ004>008-012>016-024-026-027-054-130300-
...NORTHEAST NORTH DAKOTA...

CITY           SKY/WX    TMP DP  RH WIND       PRES   REMARKS
GRAND FORKS    CLOUDY    -4 -12  68 NW6       30.68R WCI -16
GRAND FORKS AF CLOUDY    -6 -15  66 NW7       30.67S WCI -20
DEVILS LAKE    CLOUDY   -14 -18  82 CALM      30.61F
$$

NDZ022-023-025-028>030-036>039-047>053-130300-
...SOUTHEAST NORTH DAKOTA...

CITY           SKY/WX    TMP DP  RH WIND       PRES   REMARKS
JAMESTOWN      CLOUDY    -5 -12  72 NE3       30.60F
FARGO          CLOUDY    -3 -12  65 NW9       30.68S WCI -19
WAHPETON       CLOUDY    -4 -11  71 NW9       30.68R WCI -20
$$



USA.gov is the U.S. government's official web portal to all federal, state and local government web resources and services.